Location: Rounton
(54.4000°N, 1.3500°W)
Time: 18:27:45
(UTC+00:00)

Envisat - Visible Passes

Search period start: 04 December 2022 00:00
Search period end: 14 December 2022 00:00
Orbit: 763 x 765 km, 98.2° (Epoch: 03 December)

Date Brightness Start Highest point End Pass type
(mag) Time Alt. Az. Time Alt. Az. Time Alt. Az.
04 Dec 4.9 03:42:57 10° NNE 03:45:48 26° ENE 03:45:48 26° ENE visible
04 Dec 3.4 05:21:53 10° N 05:25:58 43° NW 05:25:58 43° NW visible
04 Dec 4.8 07:02:57 10° NNW 07:04:38 12° NW 07:06:09 10° WNW visible
04 Dec 5.7 16:45:18 10° SW 16:48:46 18° W 16:52:16 10° NW visible
05 Dec 5.7 03:06:41 10° NE 03:08:12 15° ENE 03:08:12 15° ENE visible
05 Dec 3.6 04:44:44 10° NNE 04:48:23 48° N 04:48:23 48° N visible
05 Dec 4.3 06:24:42 10° N 06:28:12 19° NW 06:28:33 19° WNW visible
06 Dec 4.4 04:07:48 10° NNE 04:10:48 33° NE 04:10:48 33° NE visible
06 Dec 3.8 05:47:09 10° N 05:50:59 31° NW 05:50:59 31° NW visible
06 Dec 6.1 17:12:30 10° WSW 17:14:13 12° W 17:15:56 10° WNW visible
07 Dec 5.3 03:31:09 10° NNE 03:33:13 20° NE 03:33:13 20° NE visible
07 Dec 3.6 05:09:52 10° N 05:13:24 41° NNW 05:13:24 41° NNW visible
07 Dec 4.6 06:50:26 10° NNW 06:52:52 14° NW 06:53:34 13° NW visible
07 Dec 5.6 16:32:43 10° SW 16:36:40 22° W 16:40:37 10° NW visible
08 Dec 5.9 02:55:10 10° NE 02:55:39 11° NE 02:55:39 11° NE visible
08 Dec 4.1 04:32:46 10° NNE 04:35:50 37° NNE 04:35:50 37° NNE visible
08 Dec 4.2 06:12:31 10° N 06:16:00 22° NW 06:16:00 22° NW visible
09 Dec 4.9 03:55:55 10° NNE 03:58:16 25° NE 03:58:16 25° NE visible
09 Dec 3.8 05:35:05 10° N 05:38:27 32° NNW 05:38:27 32° NNW visible
09 Dec 5.9 16:59:19 10° WSW 17:02:03 14° W 17:04:48 10° NW visible
10 Dec 5.6 03:19:24 10° NE 03:20:43 15° NE 03:20:43 15° NE visible
10 Dec 3.9 04:57:51 10° NNE 05:00:53 36° N 05:00:53 36° N visible
10 Dec 4.5 06:38:07 10° NNW 06:41:04 16° NW 06:41:04 16° NW visible
10 Dec 5.3 16:20:18 10° SSW 16:24:34 27° W 16:28:53 10° NW visible
11 Dec 4.5 04:20:49 10° NNE 04:23:21 29° NNE 04:23:21 29° NNE visible
11 Dec 4.1 06:00:24 10° N 06:03:31 24° NW 06:03:31 24° NW visible
12 Dec 5.2 03:44:03 10° NNE 03:45:48 20° NE 03:45:48 20° NE visible
12 Dec 4.0 05:23:01 10° N 05:25:59 31° NNW 05:25:59 31° NNW visible
12 Dec 4.8 07:04:12 10° NNW 07:05:42 11° NW 07:06:10 11° NW visible
12 Dec 5.7 16:46:32 10° SW 16:49:55 18° W 16:53:19 10° NW visible
13 Dec 5.9 03:07:44 10° NE 03:08:16 12° NE 03:08:16 12° NE visible
13 Dec 4.3 04:45:51 10° NNE 04:48:27 31° NNE 04:48:27 31° NNE visible
13 Dec 4.4 06:25:52 10° N 06:28:37 18° NW 06:28:37 18° NW visible
